TimeEDT,TemperatureF,Dew PointF,Humidity,Sea Level PressureIn,VisibilityMPH,Wind Direction,Wind SpeedMPH,Gust SpeedMPH,PrecipitationIn,Events,Conditions,WindDirDegrees,DateUTC
12:53 AM,81.0,73.9,79,29.90,10.0,Calm,Calm,-,N/A,,Clear,0,2012-10-20 04:53:00
1:53 AM,80.1,73.9,81,29.89,10.0,Calm,Calm,-,N/A,,Clear,0,2012-10-20 05:53:00
2:53 AM,80.1,73.9,81,29.88,10.0,Calm,Calm,-,N/A,,Clear,0,2012-10-20 06:53:00
3:53 AM,80.1,75.0,85,29.87,10.0,NW,3.5,-,N/A,,Clear,320,2012-10-20 07:53:00
4:53 AM,80.1,75.0,85,29.87,10.0,NW,4.6,-,N/A,,Clear,310,2012-10-20 08:53:00
5:53 AM,80.1,73.9,81,29.88,10.0,NW,3.5,-,N/A,,Clear,320,2012-10-20 09:53:00
6:53 AM,79.0,75.0,88,29.90,10.0,Calm,Calm,-,N/A,,Clear,0,2012-10-20 10:53:00
7:53 AM,80.1,75.9,87,29.91,10.0,Calm,Calm,-,N/A,,Clear,0,2012-10-20 11:53:00
8:53 AM,82.9,73.9,74,29.92,10.0,North,4.6,-,N/A,,Clear,350,2012-10-20 12:53:00
9:53 AM,82.9,75.0,77,29.92,10.0,NNW,6.9,-,N/A,,Clear,340,2012-10-20 13:53:00
10:53 AM,84.0,73.9,72,29.93,10.0,NNW,10.4,-,N/A,,Partly Cloudy,340,2012-10-20 14:53:00
11:53 AM,84.0,73.0,69,29.93,10.0,NNW,12.7,-,N/A,,Clear,340,2012-10-20 15:53:00
12:53 PM,84.9,73.9,69,29.91,10.0,North,9.2,-,N/A,,Partly Cloudy,360,2012-10-20 16:53:00
1:53 PM,84.9,73.0,67,29.89,10.0,North,8.1,-,N/A,,Partly Cloudy,10,2012-10-20 17:53:00
2:53 PM,86.0,73.0,65,29.88,10.0,North,5.8,-,N/A,,Scattered Clouds,360,2012-10-20 18:53:00
3:53 PM,86.0,73.0,65,29.86,10.0,North,6.9,-,N/A,,Partly Cloudy,350,2012-10-20 19:53:00
4:53 PM,84.9,72.0,65,29.85,10.0,North,6.9,-,N/A,,Partly Cloudy,10,2012-10-20 20:53:00
5:53 PM,84.0,72.0,67,29.86,10.0,NNE,6.9,-,N/A,,Clear,30,2012-10-20 21:53:00
6:53 PM,82.0,72.0,71,29.88,10.0,North,4.6,-,N/A,,Clear,10,2012-10-20 22:53:00
7:53 PM,81.0,72.0,74,29.90,10.0,North,3.5,-,N/A,,Clear,350,2012-10-20 23:53:00
8:53 PM,81.0,71.1,72,29.92,10.0,North,5.8,-,N/A,,Clear,360,2012-10-21 00:53:00
9:53 PM,80.1,71.1,74,29.93,10.0,North,3.5,-,N/A,,Clear,10,2012-10-21 01:53:00
10:53 PM,80.1,72.0,76,29.94,10.0,North,5.8,-,N/A,,Clear,360,2012-10-21 02:53:00
11:53 PM,80.1,73.0,79,29.94,10.0,NNE,4.6,-,N/A,,Clear,20,2012-10-21 03:53:00